Regional Weather Roundup
Issued by NWS

Home | Current Version | Previous Version | Graphics & Text | Print | Product List | Glossary On
Versions: 1 2 3 4 5 6 7 8 9 10 11 12 13 14 15 16 17 18 19 20 21 22 23 24 25 26 27 28 29 30 31 32 33 34 35 36 37 38 39 40 41 42 43 44 45 46 47 48 49 50
000
ASUS43 KDMX 240901
RWRIA

WEATHER ROUNDUP FOR IOWA
NATIONAL WEATHER SERVICE DES MOINES IA
400 AM CDT THU MAY 24 2018

NOTE: "FAIR" INDICATES FEW OR NO CLOUDS BELOW 12,000 FEET WITH NO
SIGNIFICANT WEATHER AND/OR OBSTRUCTIONS TO VISIBILITY.

* - THESE STATIONS ARE NOT NWS STATIONS...THUS NOT UNDER NWS
QUALITY CONTROL.  THEY ALSO DO NOT REPORT WEATHER SUCH
AS PRECIPITATION OR FOG.

IAZ001>003-012>014-020>022-031>034-043>046-241000-
   NORTHWEST IOWA

CITY           SKY/WX    TMP DP  RH WIND       PRES   REMARKS
CARROLL *      CLOUDY    68  64  88 S6        30.06R
CHEROKEE *     CLOUDY    68  65  89 S6        30.04S
DENISON *      CLOUDY    72  64  78 S12       30.06S
LE MARS *      CLOUDY    72  63  73 SE10      30.01S
ORANGE CITY *  MOCLDY    72  64  78 S6        30.03R
SHELDON *      PTCLDY    70  66  88 S15       30.01S
SIOUX CITY     CLOUDY    69  61  75 SE7       30.01R
SPENCER        PTCLDY    70  63  78 S12       30.04S
STORM LAKE *   CLOUDY    68  64  88 S12       30.06S
$$

IAZ055>058-069>071-079>083-090>094-241000-
   SOUTHWEST IOWA

CITY           SKY/WX    TMP DP  RH WIND       PRES   REMARKS
ATLANTIC *     CLOUDY    72  66  83 S7        30.06S
AUDUBON *      PTCLDY    70  64  83 S5        30.08S
CLARINDA *     PTCLDY    68  64  88 S5        30.09R
COUNCIL BLFS * CLOUDY    70  70 100 SE8       30.05S
CRESTON *      MOCLDY    66  64  94 SE6       30.11R
HARLAN  *      CLOUDY    70  66  88 S6        30.09R
LAMONI         CLOUDY    68  65  90 SE3       30.10R
RED OAK *      PTCLDY    70  64  83 S6        30.07R
SHENANDOAH *   CLOUDY    68  64  88 SE5       30.07R
$$

IAZ047>049-059>061-072>074-084-241000-
   CENTRAL IOWA

CITY           SKY/WX    TMP DP  RH WIND       PRES   REMARKS
AMES           CLOUDY    67  63  87 SE5       30.09R
ANKENY *       CLOUDY    66  64  94 CALM      30.10R
BOONE *        CLOUDY    70  64  83 S7        30.08S
CHARITON *     CLOUDY    68  64  88 S9        30.10R
DES MOINES     MOCLDY    72  64  76 SE5       30.08R
GRINNELL*      PTCLDY    67  63  85 SE6       30.12S
KNOXVILLE *    CLOUDY    68  63  83 SE5       30.09R
MARSHALLTOWN   CLOUDY    68  64  87 SE6       30.10R
NEWTON *       CLOUDY    66  63  88 SE9       30.10S
PELLA *        CLOUDY    70  62  77 SE6       30.11S
PERRY *        FAIR      70  65  86 SE7       30.08R
$$

IAZ004>006-015-016-023>025-035-036-241000-
   NORTH CENTRAL IOWA

CITY           SKY/WX    TMP DP  RH WIND       PRES   REMARKS
ALGONA *       CLOUDY    68  63  83 S10       30.06S
CLARION *      PTCLDY    70  63  78 S15       30.08S
ESTHERVILLE    CLOUDY    67  63  87 S12       30.04S
FORT DODGE *   CLOUDY    72  64  76 S8        30.08R
MASON CITY     CLOUDY    65  63  93 SE10      30.10S
FOREST CITY *  FAIR      64  64 100 SE5       30.09S
WEBSTER CITY * CLOUDY    68  63  83 SE8       30.07R
IOWA FALLS *   FAIR      66  63  90 SE7       30.11R
$$

IAZ007>011-017>019-026>030-037>042-050>054-066-241000-
   NORTHEAST IOWA

CITY           SKY/WX    TMP DP  RH WIND       PRES   REMARKS
CEDAR RAPIDS   FAIR      62  58  86 SE5       30.12R
CLINTON *      FAIR      63  56  78 E6        30.15R
DECORAH *      MOCLDY    64  61  88 SE7       30.12S
DUBUQUE        FAIR      64  56  75 S8        30.15R
MONTICELLO *   FAIR      64  59  82 SE5       30.13S
OELWEIN *      FAIR      64  59  82 SE9       30.13S
WATERLOO       FAIR      65  62  90 SE6       30.10S
$$

IAZ064-065-067-068-078-241000-
   EAST CENTRAL IOWA

CITY           SKY/WX    TMP DP  RH WIND       PRES   REMARKS
DAVENPORT      FAIR      63  55  75 SE5       30.16R
IOWA CITY      FAIR      64  58  80 CALM      30.14R
MUSCATINE *    FAIR      63  59  88 CALM      30.13S
QUAD CITIES    FAIR      62  58  86 CALM      30.13R
$$

IAZ062-063-075>077-085>089-095>099-241000-
   SOUTHEAST IOWA

CITY           SKY/WX    TMP DP  RH WIND       PRES   REMARKS
BURLINGTON     CLEAR     67  58  72 CALM      30.13R
FAIRFIELD *    CLEAR     66  61  82 E6        30.12R
FORT MADISON * CLEAR     66  61  82 SE3       30.13S
KEOKUK *       CLEAR     66  61  82 E5        30.12R
OSKALOOSA *    FAIR      66  62  89 SE6       30.11S
OTTUMWA        CLOUDY    68  63  84 SE6       30.11R
WASHINGTON *   CLEAR     66  64  94 S5        30.14R
$$

ABBREVIATIONS USED IN REMARKS
   TC - TEMPERATURES IN CELSIUS
  WCI - WIND CHILL INDEX
   HX - HEAT INDEX
  VSB - VISIBILITY
$$




USA.gov is the U.S. government's official web portal to all federal, state and local government web resources and services.